Content
SEND FEEDBACK

Daily
Averages
Monthly
Summary
United States of America

LIHUE, HAWAII


Home > North America > United States > Hawaii
Elevation: 103 feet     Latitude: 21 59N     Longitude: 159 21W

WEATHER
 
SELECT A DAY
Number of Records: 225,755;   Date Range: 1/1/95 - 12/19/14
 
SHARE

PRINT THIS DATA

[ ← Previous Day ]
WEATHER ALMANAC - APRIL 1, 2013
[ Next Day → ]
[ °C ]   °F
Weather ElementAverageHighLow
Temperature66.3 °F73.9 °F (1:53 pm)57.9 °F (3:53 am)
Dewpoint54.3 °F57 °F (7:53 am)48.9 °F (4:53 pm)
Humidity66.2 %86 % (6:53 am)47 % (4:53 pm)
Barometer30.00 in30.05 in (10:53 pm)29.95 in (2:53 pm)
Wind Speed8 mph15 mph (3:53 pm)
Wind Gust26.5 mph (3:42 pm)
Weather ElementAverage
Visibility10 mi
Wind DirectionW (264.8 °)

Weather ElementTotal
Precipitation---
Cooling Degree Days0.9 (Base 65)
Growing Degree Days15.9 (Base 50)
Averaged from 25 records on April 1, 2013
WEATHER CONDITIONS BREAKOUT
WIND DIRECTION BREAKOUT
WEATHER BY HOUR - APRIL 1, 2013
[ °C ]   °F
Local TimeTemperatureDewpointHumidityBarometerVisibilityWind DirectionWind SpeedGust SpeedPrecipitationEventsConditions
1:53 AM62.1 °F54.0 °F75 %30.00 in10.0 miWest (260°)6.9 mphOvercast
2:08 AM60.8 °F53.6 °F77 %30.01 in10.0 miWest (270°)6.9 mphOvercast
2:53 AM59.0 °F53.1 °F81 %30.00 in10.0 miWest (280°)5.8 mphOvercast
3:53 AM57.9 °F53.1 °F84 %29.99 in10.0 miWSW (240°)6.9 mphOvercast
4:53 AM61.0 °F55.0 °F81 %30.00 in10.0 miNNW (340°)4.6 mphOvercast
5:53 AM61.0 °F55.0 °F81 %30.00 in10.0 miWest (270°)5.8 mphOvercast
6:53 AM60.1 °F55.9 °F86 %30.02 in10.0 miCalmOvercast
7:53 AM64.0 °F57.0 °F78 %30.03 in10.0 miCalmOvercast
8:53 AM66.9 °F57.0 °F70 %30.03 in10.0 miWSW (240°)9.2 mphMostly Cloudy
9:53 AM69.1 °F53.1 °F57 %30.03 in10.0 miNW (320°)6.9 mphMostly Cloudy
10:53 AM69.1 °F55.0 °F61 %30.04 in10.0 miNNW (340°)9.2 mphOvercast
11:53 AM72.0 °F55.0 °F55 %30.01 in10.0 miNW (310°)6.9 mphMostly Cloudy
12:53 PM71.1 °F55.9 °F59 %29.99 in10.0 miSouth (180°)5.8 mphOvercast
1:53 PM73.9 °F55.9 °F53 %29.97 in10.0 miSSE (160°)12.7 mphOvercast
2:53 PM73.0 °F55.9 °F55 %29.95 in10.0 miSSE (150°)11.5 mphOvercast
3:42 PM68.0 °F53.6 °F60 %29.96 in10.0 miNNW (340°)12.7 mph26.5 mphOvercast
3:53 PM69.1 °F54.0 °F58 %29.96 in10.0 miNNW (340°)15.0 mph24.2 mphOvercast
4:53 PM70.0 °F48.9 °F47 %29.95 in10.0 miNW (320°)13.8 mphMostly Cloudy
5:53 PM71.1 °F52.0 °F51 %29.97 in10.0 miNNW (340°)10.4 mphMostly Cloudy
6:53 PM66.9 °F53.1 °F61 %29.99 in10.0 miNorth (350°)13.8 mphMostly Cloudy
7:53 PM66.9 °F54.0 °F63 %30.01 in10.0 miNorth (350°)9.2 mphOvercast
8:53 PM66.0 °F53.1 °F63 %30.03 in10.0 miNNW (330°)11.5 mphMostly Cloudy
9:53 PM66.0 °F53.1 °F63 %30.04 in10.0 miWNW (290°)4.6 mphMostly Cloudy
10:53 PM66.0 °F55.0 °F68 %30.05 in10.0 miNW (310°)3.5 mphOvercast
11:53 PM66.0 °F55.0 °F68 %30.04 in10.0 miWNW (290°)5.8 mphOvercast
Hourly data recorded from PHLI, located miles away from Lihue, Hawaii







STORIES FROM OUR PARTNERS